GPS BIIF-10

Last updated on Sun Apr 12 2026 00:02:39 GMT+0000 (Coordinated Universal Time)

1 40730U 15033A 26100.41256369 .00000008 00000+0 00000+0 0 9997 2 40730 54.0372 269.8788 0114969 29.6736 330.9581 2.00559817 78638
UTC large
Height (km)
Speed (km/s)
/
Latitude / Longitude
Inclination (degrees)
Orbital Period (minutes)
Azimuth
Elevation
Range (km)
Doppler Factor

Next 0 passes for location: London (51.5072 / 0.1276)

Sorry there are no passes over London.